Location: Góry Miechowskie
(50.3599°N, 20.1803°E)
Time: 07:32:59
(UTC+00:00)

A-11 Canister half - Pass Details

Date: 17 September 2024
Orbit: 1515 x 1684 km, 47.2° (Epoch: 09 October)

Event Time Altitude Azimuth Distance (km) Brightness Sun altitude
Rises 21:50:36 0° 284° (WNW) 4,675 11.8 -37.0°
Reaches altitude 10° 21:53:44 10° 280° (W) 3,683 11.2 -37.2°
Enters shadow 21:58:51 35° 260° (W) 2,278 9.8 -37.3°
Maximum altitude 22:02:31 51° 208° (SSW) 1,843 - -37.4°
Drops below altitude 10° 22:11:22 10° 136° (SE) 3,699 - -37.6°
Sets 22:14:31 0° 131° (SE) 4,697 - -37.7°
